{"data":{"norad_id":56133,"epoch":"2026-05-25T04:40:15.390912Z","epoch_age_seconds":68886,"freshness":"FRESH","line1":"1 56133U 23046AT  26145.19462258 -.00000481  00000+0 -79520-5 0  9990","line2":"2 56133  43.0058  74.6658 0001387 282.1473  77.9223 15.27574173173904","mean_motion":15.27574173,"eccentricity":0.0001387,"inclination_deg":43.0058,"raan_deg":74.6658,"arg_perigee_deg":282.1473,"mean_anomaly_deg":77.9223,"bstar":-7.952e-6,"rev_number":17390,"period_min":94.26710829838,"perigee_km":482.11489529778,"apogee_km":484.01819316095,"semimajor_km":6861.2035442294,"source":"CELESTRAK","updated_at":"2026-05-25T13:38:17.961095Z"}}